Location: Downe
(51.3167°N, 0.0500°E)
Time: 15:24:36
(UTC+00:00)

ASTEX 1 - Pass Details

Date: 17 November 2019
Orbit: 721 x 742 km, 92.7° (Epoch: 07 December)

Event Time Altitude Azimuth Distance (km) Brightness Sun altitude
Rises 04:52:19 0° 184° (S) 3,153 6.7 -22.8°
Reaches altitude 10° 04:54:38 10° 189° (S) 2,238 5.8 -22.4°
Maximum altitude 04:59:31 57° 268° (W) 869 3.4 -21.6°
Drops below altitude 10° 05:04:28 10° 347° (NNW) 2,266 5.8 -20.9°
Sets 05:06:49 0° 352° (N) 3,195 6.6 -20.5°
